Home   Weather   Tuzla   Past weeks

Flag for Bosnia-Herzegovina Past Weather in Tuzla, Bosnia-Herzegovina — Yesterday and Last 2 Weeks

Now
73 °F

Sunny.


Feels Like: 76 °F
Forecast: 45 / 78 °F
Wind: 3 mph from North

Location: Tuzla

Current Time: Sep 29, 2016 at 5:21:30 PM

Latest Report: Sep 29, 2016 at 5:00 PM


Visibility: 10 mi

Pressure: 30.21 "Hg

Humidity: 25%

Dew Point: 36 °F

Location of TuzlaLocation

Past Weather in Tuzla — Graph

°F

Tuzla Temperature Yesterday

Maximum temperature yesterday: 72 °F (at 2:30 PM)
Minimum temperature yesterday: 36 °F (at 6:30 AM)
Average temperature yesterday: 58 °F

High & Low Weather Summary for the Past Weeks

 TemperatureHumidityPressure
High86 °F (Sep 16, 2:30 PM)100% (Sep 15, 6:00 AM)30.42 "Hg (Sep 15, 6:00 AM)
Low36 °F (Sep 27, 6:00 AM)24% (Sep 29, 3:00 PM)29.68 "Hg (Sep 19, 2:00 PM)
Average61 °F66%30.10 "Hg
* Reported Sep 14 4:00 PM — Sep 29 4:00 PM, Tuzla, Weather by CustomWeather, © 2016

Note: Actual official high and low records may vary slightly from our data, if they occured in-between our weather recording intervals... More about our weather records

Advertising

Tuzla Weather History for the Previous 24 Hours

Scroll right to see more
 ConditionsComfort  
Time TempWeatherWind HumidityBarometerVisibility
4:00 PM
Thu, Sep 29
75 °FSunny.3 mph24%30.24 "Hg10 mi
3:30 PM75 °FSunny.2 mph24%30.24 "Hg10 mi
3:00 PM77 °FSunny.2 mph24%30.27 "Hg10 mi
2:30 PM73 °FSunny.2 mph31%30.27 "Hg10 mi
2:00 PM73 °FSunny.3 mph31%30.27 "Hg10 mi
1:30 PM72 °FSunny.2 mph33%30.30 "Hg10 mi
1:00 PM72 °FSunny.3 mph33%30.30 "Hg10 mi
12:30 PM70 °FSunny.2 mph35%30.30 "Hg10 mi
12:00 PM68 °FSunny.2 mph43%30.33 "Hg10 mi
11:30 AM64 °FSunny.2 mph60%30.33 "Hg10 mi
11:00 AM61 °FSunny.2 mph63%30.33 "Hg10 mi
10:30 AM57 °FSunny.2 mph67%30.36 "Hg10 mi
10:00 AM54 °FClear.2 mph77%30.36 "Hg4 mi
9:00 AM46 °FFog.1 mph93%30.36 "Hg1 mi
8:00 AM41 °FFog.1 mph100%30.36 "Hg0 mi
7:00 AM39 °FFog.1 mph100%30.36 "Hg0 mi
6:30 AM41 °FFog.2 mph100%30.36 "Hg0 mi
6:00 AM39 °FFog.1 mph100%30.36 "Hg0 mi
11:00 PM
Wed, Sep 28
46 °FClear.1 mph100%30.39 "Hg10 mi
10:30 PM48 °FClear.1 mph94%30.39 "Hg10 mi
10:00 PM48 °FClear.2 mph94%30.39 "Hg10 mi
9:00 PM52 °FClear.2 mph82%30.39 "Hg10 mi
8:00 PM54 °FClear.2 mph77%30.36 "Hg10 mi
7:00 PM55 °FPassing clouds.5 mph67%30.36 "HgN/A
6:00 PM66 °FSunny.2 mph46%30.33 "Hg10 mi
5:30 PM70 °FSunny.2 mph38%30.33 "Hg10 mi
5:00 PM72 °FPassing clouds.2 mph36%30.33 "HgN/A
Weather by CustomWeather, © 2016

See weather overviewHow to use our weather pages